Location: Kalberh�ni
(46.4610°N, 7.2453°E)
Time: 05:26:49
(UTC+00:00)

Cosmos 2237 Rocket - Pass Details

Date: 20 June 2021
Orbit: 835 x 850 km, 71.0° (Epoch: 28 July)

Event Time Altitude Azimuth Distance (km) Brightness Sun altitude
Exits shadow 20:41:35 11° 122° (ESE) 2,350 3.9 -10.1°
Maximum altitude 20:43:50 14° 97° (E) 2,167 3.9 -10.3°
Drops below altitude 10° 20:46:38 10° 67° (ENE) 2,451 4.5 -10.6°
Sets 20:50:15 0° 43° (NE) 3,392 5.5 -11.0°
